,,,PA_Meas_PMT16A,,PR_Meas_QMR101_102,,RH_Meas_QMH101,,SR_Meas_QMS101,,TA_Meas_QMH101,,GenWind,,GenWind,
date,time,status,PA,status,PR,status,RH,status,SR,status,TA,status,DirAvg,status,SpdAvg,
2009-03-09, 00:00:04,VALID,1005.39,VALID,0,VALID,90.5396,VALID,0,VALID,23.8398,VALID,353,VALID,0.365625,
2009-03-09, 00:01:04,VALID,1005.34,VALID,0,VALID,90.9744,VALID,0,VALID,23.8185,VALID,353,VALID,0.195703,
2009-03-09, 00:02:04,VALID,1005.38,VALID,0,VALID,91.0049,VALID,0,VALID,23.7407,VALID,353,VALID,0.375,
2009-03-09, 00:03:04,VALID,1005.38,VALID,0,VALID,91.2567,VALID,0,VALID,23.7212,VALID,353,VALID,0.263281,
2009-03-09, 00:04:04,VALID,1005.35,VALID,0,VALID,91.3177,VALID,0,VALID,23.6628,VALID,353,VALID,0.282422,
2009-03-09, 00:05:04,VALID,1005.38,VALID,0,VALID,91.4016,VALID,0,VALID,23.6452,VALID,353,VALID,0.0554687,
2009-03-09, 00:06:04,VALID,1005.36,VALID,0,VALID,91.4474,VALID,0,VALID,23.6257,VALID,353,VALID,0.444531,
2009-03-09, 00:07:04,VALID,1005.34,VALID,0,VALID,91.6457,VALID,0,VALID,23.585,VALID,353,VALID,0.246094,
2009-03-09, 00:08:04,VALID,1005.31,VALID,0,VALID,91.8288,VALID,0,VALID,23.6062,VALID,353,VALID,0.325,
2009-03-09, 00:09:04,VALID,1005.31,VALID,0,VALID,91.9128,VALID,0,VALID,23.5673,VALID,353,VALID,0.314453,
2009-03-09, 00:10:04,VALID,1005.28,VALID,0,VALID,91.9356,VALID,0,VALID,23.5071,VALID,353,VALID,0.423828,
2009-03-09, 00:11:04,VALID,1005.28,VALID,0,VALID,92.0196,VALID,0,VALID,23.5089,VALID,353,VALID,0.432813,
2009-03-09, 00:12:04,VALID,1005.25,VALID,0,VALID,91.9814,VALID,0,VALID,23.5089,VALID,353,VALID,0.625391,
2009-03-09, 00:13:04,VALID,1005.26,VALID,0,VALID,91.9967,VALID,0,VALID,23.5107,VALID,348,VALID,0.544141,
2009-03-09, 00:14:04,VALID,1005.23,VALID,0,VALID,91.9509,VALID,0,VALID,23.47,VALID,350,VALID,0.771094,
2009-03-09, 00:15:04,VALID,1005.21,VALID,0,VALID,91.989,VALID,0,VALID,23.5089,VALID,351,VALID,0.606641,
2009-03-09, 00:16:04,VALID,1005.22,VALID,0,VALID,91.9051,VALID,0,VALID,23.5284,VALID,356,VALID,0.639844,
2009-03-09, 00:17:04,VALID,1005.2,VALID,0,VALID,91.8822,VALID,0,VALID,23.5673,VALID,356,VALID,0.116406,
2009-03-09, 00:18:04,VALID,1005.19,VALID,0,VALID,91.8136,VALID,0,VALID,23.6062,VALID,353,VALID,0.201562,
2009-03-09, 00:19:04,VALID,1005.16,VALID,0,VALID,91.7144,VALID,0,VALID,23.6257,VALID,354,VALID,0.497656,
2009-03-09, 00:20:04,VALID,1005.17,VALID,0,VALID,91.6534,VALID,0,VALID,23.6646,VALID,352,VALID,0.379297,
2009-03-09, 00:21:04,VALID,1005.1,VALID,0,VALID,91.4474,VALID,0,VALID,23.723,VALID,359,VALID,0.694141,
2009-03-09, 00:22:04,VALID,1005.09,VALID,0,VALID,91.3177,VALID,0,VALID,23.7619,VALID,353,VALID,0.440625,
2009-03-09, 00:23:04,VALID,1005.1,VALID,0,VALID,91.2262,VALID,0,VALID,23.8203,VALID,347,VALID,0.494531,
2009-03-09, 00:24:04,VALID,1005.06,VALID,0,VALID,91.0431,VALID,0,VALID,23.8185,VALID,355,VALID,0.285547,
2009-03-09, 00:25:04,VALID,1005.05,VALID,0,VALID,90.7532,VALID,0,VALID,23.8787,VALID,359,VALID,0.848047,
2009-03-09, 00:26:04,VALID,1005.07,VALID,0,VALID,90.6082,VALID,0,VALID,23.9566,VALID,341,VALID,0.512891,
2009-03-09, 00:27:04,VALID,1005.04,VALID,0,VALID,90.3717,VALID,0,VALID,23.9955,VALID,323,VALID,0.781641,
2009-03-09, 00:28:04,VALID,1005.02,VALID,0,VALID,90.0894,VALID,0,VALID,24.0539,VALID,349,VALID,0.626953,
2009-03-09, 00:29:04,VALID,1005.02,VALID,0,VALID,90.0437,VALID,0,VALID,24.0929,VALID,2,VALID,0.365625,
2009-03-09, 00:30:04,VALID,1005.02,VALID,0,VALID,89.8835,VALID,0,VALID,24.1123,VALID,331,VALID,0.675,
2009-03-09, 00:31:04,VALID,1004.99,VALID,0,VALID,89.7919,VALID,0,VALID,24.1531,VALID,352,VALID,0.592969,
2009-03-09, 00:32:04,VALID,1005,VALID,0,VALID,89.5783,VALID,0,VALID,24.1513,VALID,357,VALID,0.844141,
2009-03-09, 00:33:04,VALID,1004.97,VALID,0,VALID,89.4791,VALID,0,VALID,24.1707,VALID,350,VALID,0.663281,
2009-03-09, 00:34:04,VALID,1004.98,VALID,0,VALID,89.5173,VALID,0,VALID,24.1707,VALID,309,VALID,0.189844,
2009-03-09, 00:35:04,VALID,1004.92,VALID,0,VALID,89.5631,VALID,0,VALID,24.2115,VALID,308,VALID,0.00195313,
2009-03-09, 00:36:04,VALID,1004.9,VALID,0,VALID,89.3266,VALID,0,VALID,24.1902,VALID,345,VALID,0.577734,
2009-03-09, 00:37:04,VALID,1004.89,VALID,0,VALID,89.1282,VALID,0,VALID,24.2097,VALID,356,VALID,0.826953,
2009-03-09, 00:38:04,VALID,1004.85,VALID,0,VALID,88.762,VALID,0,VALID,24.2504,VALID,340,VALID,1.03867,
2009-03-09, 00:39:04,VALID,1004.87,VALID,0,VALID,88.7391,VALID,0,VALID,24.2875,VALID,338,VALID,0.428906,
2009-03-09, 00:40:04,VALID,1004.84,VALID,0,VALID,88.3729,VALID,0,VALID,24.307,VALID,351,VALID,0.928906,
2009-03-09, 00:41:04,VALID,1004.81,VALID,0,VALID,88.2814,VALID,0,VALID,24.3459,VALID,355,VALID,1.02734,
2009-03-09, 00:42:04,VALID,1004.79,VALID,0,VALID,88.0525,VALID,0,VALID,24.383,VALID,336,VALID,0.600391,
2009-03-09, 00:43:04,VALID,1004.79,VALID,0,VALID,87.7474,VALID,0,VALID,24.4433,VALID,353,VALID,0.829687,
2009-03-09, 00:44:04,VALID,1004.78,VALID,0,VALID,87.7932,VALID,0,VALID,24.4628,VALID,341,VALID,0.389453,
2009-03-09, 00:45:04,VALID,1004.79,VALID,0,VALID,87.7169,VALID,0,VALID,24.5017,VALID,356,VALID,0.722266,
2009-03-09, 00:46:04,VALID,1004.75,VALID,0,VALID,87.8313,VALID,0,VALID,24.4628,VALID,320,VALID,0.0726563,
2009-03-09, 00:47:04,VALID,1004.78,VALID,0,VALID,87.7855,VALID,0,VALID,24.4628,VALID,344,VALID,0.612109,
2009-03-09, 00:48:04,VALID,1004.76,VALID,0,VALID,87.9762,VALID,0,VALID,24.4628,VALID,350,VALID,0.108594,
2009-03-09, 00:49:04,VALID,1004.77,VALID,0,VALID,88.0983,VALID,0,VALID,24.4628,VALID,350,VALID,0.0648438,
2009-03-09, 00:50:04,VALID,1004.75,VALID,0,VALID,88.1059,VALID,0,VALID,24.4414,VALID,351,VALID,0.434375,
2009-03-09, 00:51:04,VALID,1004.75,VALID,0,VALID,88.3577,VALID,0,VALID,24.4238,VALID,348,VALID,0.473047,
2009-03-09, 00:52:04,VALID,1004.75,VALID,0,VALID,88.4416,VALID,0,VALID,24.3654,VALID,348,VALID,0.276172,
2009-03-09, 00:53:04,VALID,1004.76,VALID,0,VALID,88.6094,VALID,0,VALID,24.307,VALID,348,VALID,0.3125,
2009-03-09, 00:54:04,VALID,1004.72,VALID,0,VALID,88.8307,VALID,0,VALID,24.2681,VALID,358,VALID,0.592578,
2009-03-09, 00:55:04,VALID,1004.75,VALID,0,VALID,89.2045,VALID,0,VALID,24.1707,VALID,358,VALID,0.328125,
2009-03-09, 00:56:04,VALID,1004.71,VALID,0,VALID,89.4791,VALID,0,VALID,24.1123,VALID,330,VALID,0.478906,
2009-03-09, 00:57:04,VALID,1004.69,VALID,0,VALID,89.6622,VALID,0,VALID,24.0716,VALID,330,VALID,0.405469,
2009-03-09, 00:58:04,VALID,1004.72,VALID,0,VALID,89.8835,VALID,0,VALID,24.0345,VALID,330,VALID,0.396875,
2009-03-09, 00:59:04,VALID,1004.69,VALID,0,VALID,90.1963,VALID,0,VALID,23.9566,VALID,330,VALID,0.512109,
2009-03-09, 01:00:04,VALID,1004.66,VALID,0,VALID,90.5014,VALID,0,VALID,23.8787,VALID,358,VALID,0.648828,
2009-03-09, 01:01:04,VALID,1004.65,VALID,0,VALID,90.7989,VALID,0,VALID,23.8009,VALID,358,VALID,0.4875,
2009-03-09, 01:02:04,VALID,1004.63,VALID,0,VALID,91.2033,VALID,0,VALID,23.7425,VALID,358,VALID,0.410937,
2009-03-09, 01:03:04,VALID,1004.64,VALID,0,VALID,91.4245,VALID,0,VALID,23.6841,VALID,358,VALID,0.549219,
2009-03-09, 01:04:04,VALID,1004.61,VALID,0,VALID,91.6457,VALID,0,VALID,23.6257,VALID,358,VALID,0.399219,
2009-03-09, 01:05:04,VALID,1004.59,VALID,0,VALID,91.9128,VALID,0,VALID,23.5673,VALID,358,VALID,0.430859,
2009-03-09, 01:06:04,VALID,1004.6,VALID,0,VALID,92.1645,VALID,0,VALID,23.5478,VALID,358,VALID,0.325391,
2009-03-09, 01:07:04,VALID,1004.61,VALID,0,VALID,92.34,VALID,0,VALID,23.5284,VALID,358,VALID,0.255078,
2009-03-09, 01:08:04,VALID,1004.59,VALID,0,VALID,92.4163,VALID,0,VALID,23.5089,VALID,351,VALID,0.492578,
2009-03-09, 01:09:04,VALID,1004.59,VALID,0,VALID,92.5078,VALID,0,VALID,23.4894,VALID,351,VALID,0.473437,
2009-03-09, 01:10:04,VALID,1004.6,VALID,0,VALID,92.5688,VALID,0,VALID,23.4487,VALID,349,VALID,0.631641,
2009-03-09, 01:11:04,VALID,1004.57,VALID,0,VALID,92.6909,VALID,0,VALID,23.47,VALID,351,VALID,0.688281,
2009-03-09, 01:12:04,VALID,1004.55,VALID,0,VALID,92.7519,VALID,0,VALID,23.4505,VALID,342,VALID,0.480859,
2009-03-09, 01:13:04,VALID,1004.54,VALID,0,VALID,92.8053,VALID,0,VALID,23.47,VALID,344,VALID,0.604688,
2009-03-09, 01:14:04,VALID,1004.49,VALID,0,VALID,92.8664,VALID,0,VALID,23.4894,VALID,354,VALID,0.784766,
2009-03-09, 01:15:04,VALID,1004.46,VALID,0,VALID,92.8664,VALID,0,VALID,23.5089,VALID,355,VALID,0.531641,
2009-03-09, 01:16:04,VALID,1004.46,VALID,0,VALID,92.8969,VALID,0,VALID,23.5284,VALID,355,VALID,0.680859,
2009-03-09, 01:17:04,VALID,1004.43,VALID,0,VALID,92.8816,VALID,0,VALID,23.5478,VALID,354,VALID,0.576953,
2009-03-09, 01:18:04,VALID,1004.45,VALID,0,VALID,92.7824,VALID,0,VALID,23.5868,VALID,352,VALID,0.559766,
2009-03-09, 01:19:04,VALID,1004.4,VALID,0,VALID,92.6375,VALID,0,VALID,23.5868,VALID,352,VALID,0.473047,
2009-03-09, 01:20:04,VALID,1004.4,VALID,0,VALID,92.546,VALID,0,VALID,23.6487,VALID,352,VALID,0.423828,
2009-03-09, 01:21:04,VALID,1004.4,VALID,0,VALID,92.4773,VALID,0,VALID,23.6257,VALID,349,VALID,0.840625,
2009-03-09, 01:22:04,VALID,1004.4,VALID,0,VALID,92.5154,VALID,0,VALID,23.6452,VALID,352,VALID,0.899609,
2009-03-09, 01:23:04,VALID,1004.4,VALID,0,VALID,92.4391,VALID,0,VALID,23.6646,VALID,350,VALID,0.942187,
2009-03-09, 01:24:04,VALID,1004.38,VALID,0,VALID,92.34,VALID,0,VALID,23.7017,VALID,347,VALID,0.790234,
2009-03-09, 01:25:04,VALID,1004.36,VALID,0,VALID,92.2484,VALID,0,VALID,23.723,VALID,359,VALID,0.711719,
2009-03-09, 01:26:04,VALID,1004.36,VALID,0,VALID,92.1569,VALID,0,VALID,23.7778,VALID,6,VALID,0.845312,
2009-03-09, 01:27:04,VALID,1004.35,VALID,0,VALID,91.8822,VALID,0.100563,VALID,23.8575,VALID,355,VALID,0.946875,
2009-03-09, 01:28:04,VALID,1004.31,VALID,0,VALID,91.6381,VALID,0.100563,VALID,23.914,VALID,355,VALID,0.729688,
2009-03-09, 01:29:04,VALID,1004.31,VALID,0,VALID,91.4092,VALID,0.100563,VALID,23.9548,VALID,355,VALID,0.642969,
2009-03-09, 01:30:04,VALID,1004.29,VALID,0,VALID,91.3635,VALID,0.100563,VALID,23.9353,VALID,346,VALID,0.578125,
2009-03-09, 01:31:04,VALID,1004.25,VALID,0,VALID,91.3253,VALID,0.100563,VALID,23.953,VALID,340,VALID,1.04531,
2009-03-09, 01:32:04,VALID,1004.28,VALID,0,VALID,91.1651,VALID,0.100563,VALID,23.9937,VALID,356,VALID,0.842578,
2009-03-09, 01:33:04,VALID,1004.25,VALID,0,VALID,91.1041,VALID,0.100563,VALID,24.0539,VALID,352,VALID,0.828906,
2009-03-09, 01:34:04,VALID,1004.25,VALID,0,VALID,91.0965,VALID,0,VALID,24.0326,VALID,352,VALID,0.801562,
2009-03-09, 01:35:04,VALID,1004.23,VALID,0,VALID,91.0812,VALID,0,VALID,24.0521,VALID,352,VALID,0.738672,
2009-03-09, 01:36:04,VALID,1004.23,VALID,0,VALID,91.0354,VALID,0.100563,VALID,24.0697,VALID,328,VALID,0.594922,
2009-03-09, 01:37:04,VALID,1004.22,VALID,0,VALID,90.8981,VALID,0,VALID,24.1087,VALID,334,VALID,0.205078,
2009-03-09, 01:38:04,VALID,1004.24,VALID,0,VALID,90.8142,VALID,0.100563,VALID,24.1494,VALID,334,VALID,0.0691406,
2009-03-09, 01:39:04,VALID,1004.21,VALID,0,VALID,90.6845,VALID,0,VALID,24.1494,VALID,334,VALID,0.245703,
2009-03-09, 01:40:04,VALID,1004.22,VALID,0,VALID,90.6006,VALID,0,VALID,24.1689,VALID,348,VALID,0.414453,
2009-03-09, 01:41:04,VALID,1004.18,VALID,0,VALID,90.5472,VALID,0.100563,VALID,24.1671,VALID,349,VALID,0.360938,
2009-03-09, 01:42:04,VALID,1004.19,VALID,0,VALID,90.6082,VALID,0,VALID,24.1689,VALID,349,VALID,0.358984,
2009-03-09, 01:43:04,VALID,1004.17,VALID,0,VALID,90.715,VALID,0,VALID,24.1494,VALID,349,VALID,0.500781,
2009-03-09, 01:44:04,VALID,1004.17,VALID,0,VALID,90.9286,VALID,0.100563,VALID,24.1494,VALID,349,VALID,0.426953,
2009-03-09, 01:45:04,VALID,1004.13,VALID,0,VALID,91.0583,VALID,0,VALID,24.1318,VALID,349,VALID,0.457422,
2009-03-09, 01:46:04,VALID,1004.15,VALID,0,VALID,91.1651,VALID,0,VALID,24.0716,VALID,349,VALID,0.476953,
2009-03-09, 01:47:04,VALID,1004.14,VALID,0,VALID,91.3711,VALID,0.100563,VALID,24.0326,VALID,349,VALID,0.398438,
2009-03-09, 01:48:04,VALID,1004.13,VALID,0,VALID,91.5542,VALID,0,VALID,23.9937,VALID,349,VALID,0.476563,
2009-03-09, 01:49:04,VALID,1004.13,VALID,0,VALID,91.7068,VALID,0,VALID,23.9353,VALID,349,VALID,0.428906,
2009-03-09, 01:50:04,VALID,1004.16,VALID,0,VALID,91.8212,VALID,0.100563,VALID,23.8751,VALID,349,VALID,0.484375,
2009-03-09, 01:51:04,VALID,1004.12,VALID,0,VALID,91.9967,VALID,0,VALID,23.8769,VALID,349,VALID,0.516406,
2009-03-09, 01:52:04,VALID,1004.16,VALID,0,VALID,92.1492,VALID,0,VALID,23.8787,VALID,349,VALID,0.502344,
2009-03-09, 01:53:04,VALID,1004.16,VALID,0,VALID,92.2561,VALID,0.100563,VALID,23.8185,VALID,339,VALID,0.4875,
2009-03-09, 01:54:04,VALID,1004.16,VALID,0,VALID,92.3552,VALID,0,VALID,23.8185,VALID,347,VALID,0.548828,
2009-03-09, 01:55:04,VALID,1004.16,VALID,0,VALID,92.4849,VALID,0,VALID,23.7991,VALID,350,VALID,0.605859,
2009-03-09, 01:56:04,VALID,1004.16,VALID,0,VALID,92.607,VALID,0,VALID,23.7991,VALID,350,VALID,0.60625,
2009-03-09, 01:57:04,VALID,1004.18,VALID,0,VALID,92.6604,VALID,0.100563,VALID,23.7991,VALID,350,VALID,0.560547,
2009-03-09, 01:58:04,VALID,1004.23,VALID,0,VALID,92.7367,VALID,0.100563,VALID,23.7796,VALID,352,VALID,0.637891,
2009-03-09, 01:59:04,VALID,1004.22,VALID,0,VALID,92.8282,VALID,0.100563,VALID,23.7796,VALID,352,VALID,0.407813,
2009-03-09, 02:00:04,VALID,1004.22,VALID,0,VALID,92.8816,VALID,0.100563,VALID,23.7601,VALID,352,VALID,0.417188,
2009-03-09, 02:01:04,VALID,1004.23,VALID,0,VALID,92.9503,VALID,0,VALID,23.7814,VALID,352,VALID,0.296875,
2009-03-09, 02:02:04,VALID,1004.24,VALID,0,VALID,93.0037,VALID,0,VALID,23.7601,VALID,352,VALID,0,
2009-03-09, 02:03:04,VALID,1004.24,VALID,0,VALID,93.0571,VALID,0.100563,VALID,23.7796,VALID,352,VALID,0.424219,
2009-03-09, 02:04:04,VALID,1004.27,VALID,0,VALID,93.1257,VALID,0.100563,VALID,23.7796,VALID,352,VALID,0.167578,
2009-03-09, 02:05:04,VALID,1004.25,VALID,0,VALID,93.2402,VALID,0,VALID,23.7991,VALID,352,VALID,0.157031,
2009-03-09, 02:06:04,VALID,1004.27,VALID,0,VALID,93.2631,VALID,0,VALID,23.7991,VALID,352,VALID,0.330859,
2009-03-09, 02:07:04,VALID,1004.25,VALID,0,VALID,93.2554,VALID,0,VALID,23.8185,VALID,352,VALID,0.0136719,
2009-03-09, 02:08:04,VALID,1004.27,VALID,0,VALID,93.2097,VALID,0.100563,VALID,23.7991,VALID,352,VALID,0,
2009-03-09, 02:09:04,VALID,1004.26,VALID,0,VALID,93.2478,VALID,0.100563,VALID,23.838,VALID,352,VALID,0.00078125,
2009-03-09, 02:10:04,VALID,1004.28,VALID,0,VALID,93.202,VALID,0.100563,VALID,23.838,VALID,352,VALID,0.451172,
2009-03-09, 02:11:04,VALID,1004.27,VALID,0,VALID,93.1715,VALID,0.100563,VALID,23.838,VALID,352,VALID,0.272656,
2009-03-09, 02:12:04,VALID,1004.28,VALID,0,VALID,93.2173,VALID,0,VALID,23.838,VALID,352,VALID,0.188672,
2009-03-09, 02:13:04,VALID,1004.29,VALID,0,VALID,93.2097,VALID,0,VALID,23.838,VALID,352,VALID,0.283594,
2009-03-09, 02:14:04,VALID,1004.28,VALID,0,VALID,93.2173,VALID,0,VALID,23.8185,VALID,352,VALID,0.000390625,
2009-03-09, 02:15:04,VALID,1004.28,VALID,0,VALID,93.2478,VALID,0,VALID,23.8185,VALID,352,VALID,0,
2009-03-09, 02:16:04,VALID,1004.27,VALID,0,VALID,93.2631,VALID,0.100563,VALID,23.8185,VALID,352,VALID,0,
2009-03-09, 02:17:04,VALID,1004.27,VALID,0,VALID,93.3088,VALID,0.100563,VALID,23.8593,VALID,352,VALID,0,
2009-03-09, 02:18:04,VALID,1004.28,VALID,0,VALID,93.3546,VALID,0.100563,VALID,23.838,VALID,352,VALID,0,
2009-03-09, 02:19:04,VALID,1004.26,VALID,0,VALID,93.3622,VALID,0,VALID,23.8185,VALID,352,VALID,0,
2009-03-09, 02:20:04,VALID,1004.25,VALID,0,VALID,93.3699,VALID,0,VALID,23.8185,VALID,352,VALID,0,
2009-03-09, 02:21:04,VALID,1004.26,VALID,0,VALID,93.3928,VALID,0.100563,VALID,23.8185,VALID,352,VALID,0,
2009-03-09, 02:22:04,VALID,1004.23,VALID,0,VALID,93.4385,VALID,0,VALID,23.8167,VALID,352,VALID,0,
2009-03-09, 02:23:04,VALID,1004.25,VALID,0,VALID,93.4462,VALID,0,VALID,23.8185,VALID,352,VALID,0,
2009-03-09, 02:24:04,VALID,1004.24,VALID,0,VALID,93.553,VALID,0.100563,VALID,23.838,VALID,352,VALID,0.175,
2009-03-09, 02:25:04,VALID,1004.21,VALID,0,VALID,93.5606,VALID,0.100563,VALID,23.8362,VALID,352,VALID,0.272656,
2009-03-09, 02:26:04,VALID,1004.19,VALID,0,VALID,93.553,VALID,0,VALID,23.8593,VALID,352,VALID,0,
2009-03-09, 02:27:04,VALID,1004.22,VALID,0,VALID,93.5835,VALID,0,VALID,23.8787,VALID,352,VALID,0,
2009-03-09, 02:28:04,VALID,1004.2,VALID,0,VALID,93.6064,VALID,0,VALID,23.8593,VALID,352,VALID,0,
2009-03-09, 02:29:04,VALID,1004.18,VALID,0,VALID,93.6826,VALID,0,VALID,23.8982,VALID,352,VALID,0,
2009-03-09, 02:30:04,VALID,1004.18,VALID,0,VALID,93.7055,VALID,0,VALID,23.8982,VALID,352,VALID,0,
2009-03-09, 02:31:04,VALID,1004.19,VALID,0,VALID,93.7208,VALID,0,VALID,23.9177,VALID,352,VALID,0,
2009-03-09, 02:32:04,VALID,1004.13,VALID,0,VALID,93.7513,VALID,0,VALID,23.9177,VALID,352,VALID,0,
2009-03-09, 02:33:04,VALID,1004.13,VALID,0,VALID,93.7361,VALID,0,VALID,23.9177,VALID,352,VALID,0,
2009-03-09, 02:34:04,VALID,1004.12,VALID,0,VALID,93.7742,VALID,0,VALID,23.9584,VALID,352,VALID,0,
2009-03-09, 02:35:04,VALID,1004.12,VALID,0,VALID,93.8123,VALID,0,VALID,23.9371,VALID,352,VALID,0,
2009-03-09, 02:36:04,VALID,1004.12,VALID,0,VALID,93.7895,VALID,0,VALID,23.9584,VALID,352,VALID,0,
2009-03-09, 02:37:04,VALID,1004.11,VALID,0,VALID,93.8352,VALID,0,VALID,23.9566,VALID,352,VALID,0,
2009-03-09, 02:38:04,VALID,1004.11,VALID,0,VALID,93.8886,VALID,0,VALID,23.9761,VALID,352,VALID,0,
2009-03-09, 02:39:04,VALID,1004.08,VALID,0,VALID,93.881,VALID,0,VALID,24.0168,VALID,352,VALID,0,
2009-03-09, 02:40:04,VALID,1004.09,VALID,0,VALID,93.8886,VALID,0,VALID,23.9955,VALID,352,VALID,0,
2009-03-09, 02:41:04,VALID,1004.08,VALID,0,VALID,93.9039,VALID,0,VALID,24.0345,VALID,352,VALID,0,
2009-03-09, 02:42:04,VALID,1004.09,VALID,0,VALID,93.9115,VALID,0.100563,VALID,24.0326,VALID,352,VALID,0,
2009-03-09, 02:43:04,VALID,1004.09,VALID,0,VALID,93.9344,VALID,0.100563,VALID,24.0132,VALID,352,VALID,0,
2009-03-09, 02:44:04,VALID,1004.11,VALID,0,VALID,93.9115,VALID,0,VALID,24.0326,VALID,352,VALID,0,
2009-03-09, 02:45:04,VALID,1004.1,VALID,0,VALID,93.9344,VALID,0.100563,VALID,24.0521,VALID,352,VALID,0.0964844,
2009-03-09, 02:46:04,VALID,1004.11,VALID,0,VALID,93.9573,VALID,0,VALID,24.0716,VALID,352,VALID,0,
2009-03-09, 02:47:04,VALID,1004.11,VALID,0,VALID,93.9497,VALID,0,VALID,24.091,VALID,352,VALID,0,
2009-03-09, 02:48:04,VALID,1004.1,VALID,0,VALID,93.9649,VALID,0,VALID,24.0716,VALID,352,VALID,0,
2009-03-09, 02:49:04,VALID,1004.1,VALID,0,VALID,93.9344,VALID,0.100563,VALID,24.091,VALID,352,VALID,0,
2009-03-09, 02:50:04,VALID,1004.13,VALID,0,VALID,93.9497,VALID,0.100563,VALID,24.091,VALID,352,VALID,0,
2009-03-09, 02:51:04,VALID,1004.1,VALID,0,VALID,93.9268,VALID,0,VALID,24.1123,VALID,352,VALID,0,
2009-03-09, 02:52:04,VALID,1004.1,VALID,0,VALID,93.9344,VALID,0.100563,VALID,24.1105,VALID,352,VALID,0,
2009-03-09, 02:53:04,VALID,1004.12,VALID,0,VALID,93.9573,VALID,0,VALID,24.0892,VALID,352,VALID,0,
2009-03-09, 02:54:04,VALID,1004.11,VALID,0,VALID,93.942,VALID,0,VALID,24.1105,VALID,352,VALID,0,
2009-03-09, 02:55:04,VALID,1004.08,VALID,0,VALID,93.9497,VALID,0.100563,VALID,24.13,VALID,352,VALID,0,
2009-03-09, 02:56:04,VALID,1004.08,VALID,0,VALID,93.9497,VALID,0,VALID,24.13,VALID,352,VALID,0,
2009-03-09, 02:57:04,VALID,1004.08,VALID,0,VALID,93.9268,VALID,0,VALID,24.13,VALID,352,VALID,0,
2009-03-09, 02:58:04,VALID,1004.06,VALID,0,VALID,93.9497,VALID,0,VALID,24.13,VALID,352,VALID,0,
2009-03-09, 02:59:04,VALID,1004.06,VALID,0,VALID,93.9649,VALID,0.100563,VALID,24.1707,VALID,352,VALID,0,
2009-03-09, 03:00:04,VALID,1004.08,VALID,0,VALID,93.9649,VALID,0,VALID,24.1707,VALID,352,VALID,0,
2009-03-09, 03:01:04,VALID,1004.09,VALID,0,VALID,93.9878,VALID,0.100563,VALID,24.1494,VALID,352,VALID,0.394531,
2009-03-09, 03:02:04,VALID,1004.06,VALID,0,VALID,94.0107,VALID,0,VALID,24.1689,VALID,352,VALID,0,
2009-03-09, 03:03:04,VALID,1004.09,VALID,0,VALID,94.0031,VALID,0,VALID,24.1689,VALID,352,VALID,0,
2009-03-09, 03:04:04,VALID,1004.11,VALID,0,VALID,94.0031,VALID,0,VALID,24.1884,VALID,352,VALID,0,
2009-03-09, 03:05:04,VALID,1004.11,VALID,0,VALID,94.0488,VALID,0,VALID,24.2291,VALID,352,VALID,0,
2009-03-09, 03:06:04,VALID,1004.12,VALID,0,VALID,94.0259,VALID,0,VALID,24.2291,VALID,352,VALID,0.384375,
2009-03-09, 03:07:04,VALID,1004.12,VALID,0,VALID,94.0717,VALID,0,VALID,24.2273,VALID,352,VALID,0.242188,
2009-03-09, 03:08:04,VALID,1004.1,VALID,0,VALID,94.0488,VALID,0,VALID,24.2468,VALID,352,VALID,0.185156,
2009-03-09, 03:09:04,VALID,1004.08,VALID,0,VALID,94.0641,VALID,0,VALID,24.2486,VALID,342,VALID,0.335938,
2009-03-09, 03:10:04,VALID,1004.23,VALID,0,VALID,93.8429,VALID,0,VALID,24.2486,VALID,346,VALID,1.1543,
2009-03-09, 03:11:04,VALID,1004.08,VALID,0,VALID,93.942,VALID,0,VALID,24.2662,VALID,313,VALID,0.0472656,
2009-03-09, 03:12:04,VALID,1004.04,VALID,0,VALID,93.8047,VALID,0.100563,VALID,24.3052,VALID,313,VALID,0.176953,
2009-03-09, 03:13:04,VALID,1004.01,VALID,0,VALID,93.5224,VALID,0,VALID,24.2875,VALID,12,VALID,1.58945,
2009-03-09, 03:14:04,VALID,1004.03,VALID,0,VALID,93.0723,VALID,0.100563,VALID,24.307,VALID,30,VALID,0.557031,
2009-03-09, 03:15:04,VALID,1004.03,VALID,0,VALID,92.7901,VALID,0,VALID,24.3246,VALID,52,VALID,0.173438,
2009-03-09, 03:16:04,VALID,1004.04,VALID,0,VALID,92.0424,VALID,0,VALID,24.3246,VALID,349,VALID,0.6125,
2009-03-09, 03:17:04,VALID,1004.03,VALID,0,VALID,91.8288,VALID,0,VALID,24.3636,VALID,350,VALID,0.100391,
2009-03-09, 03:18:04,VALID,1004,VALID,0,VALID,91.6686,VALID,0,VALID,24.422,VALID,350,VALID,0,
2009-03-09, 03:19:04,VALID,1003.99,VALID,0,VALID,91.1804,VALID,0.100563,VALID,24.422,VALID,349,VALID,0.283984,
2009-03-09, 03:20:04,VALID,1003.95,VALID,0,VALID,90.6311,VALID,0,VALID,24.4628,VALID,91,VALID,0.273438,
2009-03-09, 03:21:04,VALID,1003.94,VALID,0,VALID,90.4099,VALID,0,VALID,24.5017,VALID,90,VALID,0.29375,
2009-03-09, 03:22:04,VALID,1003.9,VALID,0,VALID,89.9216,VALID,0,VALID,24.5212,VALID,18,VALID,0.632813,
2009-03-09, 03:23:04,VALID,1003.87,VALID,0,VALID,89.9598,VALID,0.100563,VALID,24.5193,VALID,18,VALID,0.221484,
2009-03-09, 03:24:04,VALID,1003.89,VALID,0,VALID,89.2884,VALID,0,VALID,24.4998,VALID,3,VALID,0.525391,
2009-03-09, 03:25:04,VALID,1003.86,VALID,0,VALID,88.7697,VALID,0,VALID,24.5212,VALID,2,VALID,0.928125,
2009-03-09, 03:26:04,VALID,1003.87,VALID,0,VALID,88.3653,VALID,0,VALID,24.4998,VALID,342,VALID,0.750781,
2009-03-09, 03:27:04,VALID,1003.86,VALID,0,VALID,87.6253,VALID,0,VALID,24.5212,VALID,2,VALID,1.90391,
2009-03-09, 03:28:04,VALID,1003.85,VALID,0,VALID,87.4651,VALID,0,VALID,24.5212,VALID,345,VALID,0.998047,
2009-03-09, 03:29:04,VALID,1003.85,VALID,0,VALID,86.7251,VALID,0,VALID,24.5193,VALID,352,VALID,1.47422,
2009-03-09, 03:30:04,VALID,1003.82,VALID,0,VALID,86.9082,VALID,0,VALID,24.599,VALID,2,VALID,0.694922,
2009-03-09, 03:31:04,VALID,1003.81,VALID,0,VALID,86.9921,VALID,0,VALID,24.5777,VALID,8,VALID,0.576563,
2009-03-09, 03:32:04,VALID,1003.8,VALID,0,VALID,87.2362,VALID,0.100563,VALID,24.5388,VALID,357,VALID,0.653125,
2009-03-09, 03:33:04,VALID,1003.77,VALID,0,VALID,87.2973,VALID,0,VALID,24.5406,VALID,357,VALID,1.0293,
2009-03-09, 03:34:04,VALID,1003.78,VALID,0,VALID,87.1981,VALID,0,VALID,24.5017,VALID,349,VALID,0.898047,
2009-03-09, 03:35:04,VALID,1003.78,VALID,0,VALID,87.2134,VALID,0,VALID,24.4822,VALID,358,VALID,1.34609,
2009-03-09, 03:36:04,VALID,1003.75,VALID,0,VALID,87.2057,VALID,0,VALID,24.4628,VALID,354,VALID,0.840234,
2009-03-09, 03:37:04,VALID,1003.76,VALID,0,VALID,87.2668,VALID,0,VALID,24.4433,VALID,355,VALID,0.836328,
2009-03-09, 03:38:04,VALID,1003.76,VALID,0,VALID,87.2668,VALID,0,VALID,24.4025,VALID,354,VALID,0.797656,
2009-03-09, 03:39:04,VALID,1003.77,VALID,0,VALID,87.3659,VALID,0,VALID,24.4238,VALID,348,VALID,0.564062,
2009-03-09, 03:40:04,VALID,1003.76,VALID,0,VALID,87.5033,VALID,0,VALID,24.3849,VALID,348,VALID,0.637891,
2009-03-09, 03:41:04,VALID,1003.79,VALID,0,VALID,87.5567,VALID,0,VALID,24.3654,VALID,355,VALID,0.612109,
2009-03-09, 03:42:04,VALID,1003.81,VALID,0,VALID,87.6482,VALID,0,VALID,24.3459,VALID,314,VALID,0.352344,
2009-03-09, 03:43:04,VALID,1003.82,VALID,0,VALID,87.6101,VALID,0,VALID,24.3459,VALID,352,VALID,0.611719,
2009-03-09, 03:44:04,VALID,1003.83,VALID,0,VALID,87.5414,VALID,0,VALID,24.3265,VALID,344,VALID,0.869141,
2009-03-09, 03:45:04,VALID,1003.84,VALID,0,VALID,87.6863,VALID,0,VALID,24.3265,VALID,3,VALID,0.476172,